Port Aransas, TX

7:12 PM CDT on July 30, 2016 (GMT -0500)
Port Aransas

Weather History for KRAS - December, 2012

Change the Weather History Date:

Friday, December 14, 2012

  Actual Average (KCRP) Record (KCRP)
Temperature  
Mean Temperature 68 °F 58 °F  
Max Temperature 71 °F 68 °F 85 °F (1973)
Min Temperature 66 °F 49 °F 27 °F (1919)
Degree Days  
Heating Degree Days 0 8  
Month to date heating degree days 98  
Since 1 July heating degree days 199  
Cooling Degree Days 4 2  
Month to date cooling degree days 28  
Year to date cooling degree days 3503  
Growing Degree Days 18 (Base 50)    
Moisture  
Dew Point 63 °F    
Average Humidity 83    
Maximum Humidity 88    
Minimum Humidity 78    
Precipitation  
Precipitation 0.00 in 0.06 in 0.52 in (1937)
Month to date precipitation 0.76  
Year to date precipitation 30.69  
Snow  
Snow 0.00 in - - ()
Month to date snowfall  
Since 1 July snowfall  
Snow Depth -    
Sea Level Pressure  
Sea Level Pressure 30.03 in    
Wind  
Wind Speed 10 mph (SSE)    
Max Wind Speed 16 mph    
Max Gust Speed 21 mph    
Visibility 9 miles    
Events Rain    
T = Trace of Precipitation, MM = Missing Value Source: NWS Daily Summary

Daily Weather History Graph

Daily Weather History Graph

Search for Another Location

Airport or City:

Trip Planner

Search our weather history database for the weather conditions in past years. The results will help you decide how hot, cold, wet, or windy it might be!

Date:

Astronomy

Dec. 14, 2012 Rise Set
Actual Time 7:11 AM CST 5:35 PM CST
Civil Twilight 6:45 AM CST 6:00 PM CST
Nautical Twilight 6:16 AM CST 6:30 PM CST
Astronomical Twilight 5:47 AM CST 6:58 PM CST
Moon 8:21 AM CST (12/14) 7:23 PM CST (12/14)
Length of Visible Light 11h 15m
Length of Day
10h 23m
Waxing Crescent, 3% of the Moon is Illuminated
Dec 14
Waxing Crescent
Dec 19
First Quarter
Dec 28
Full
Jan 4
Last Quarter
Jan 11
New

Hourly Weather History & Observations

Time (CST) Temp. Dew Point Humidity Pressure Visibility Wind Dir Wind Speed Gust Speed Precip Events Conditions
12:15 AM 66.2 °F 60.8 °F 83% 30.15 in 10.0 mi SE 8.1 mph - N/A   Overcast
12:35 AM 66.2 °F 60.8 °F 83% 30.14 in 10.0 mi SE 9.2 mph - N/A   Overcast
12:55 AM 66.2 °F 60.8 °F 83% 30.13 in 10.0 mi SE 9.2 mph - N/A   Overcast
1:15 AM 66.2 °F 60.8 °F 83% 30.13 in 10.0 mi SE 6.9 mph - N/A   Overcast
1:35 AM 66.2 °F 60.8 °F 83% 30.13 in 10.0 mi SE 6.9 mph - N/A   Overcast
1:55 AM 66.2 °F 60.8 °F 83% 30.12 in 10.0 mi SE 8.1 mph - N/A   Overcast
2:15 AM 66.2 °F 60.8 °F 83% 30.11 in 10.0 mi SE 11.5 mph - N/A   Overcast
2:35 AM 66.2 °F 60.8 °F 83% 30.11 in 10.0 mi SE 8.1 mph - N/A   Overcast
2:55 AM 66.2 °F 60.8 °F 83% 30.11 in 10.0 mi SE 6.9 mph - N/A   Overcast
3:15 AM 66.2 °F 60.8 °F 83% 30.11 in 10.0 mi SE 8.1 mph - N/A   Overcast
3:35 AM 66.2 °F 60.8 °F 83% 30.10 in 10.0 mi SE 8.1 mph - N/A   Overcast
3:55 AM 66.2 °F 60.8 °F 83% 30.11 in 10.0 mi SE 8.1 mph - N/A   Overcast
4:15 AM 66.2 °F 60.8 °F 83% 30.10 in 10.0 mi ESE 8.1 mph - N/A   Overcast
4:35 AM 66.2 °F 60.8 °F 83% 30.09 in 10.0 mi SE 8.1 mph - N/A   Overcast
5:15 AM 68.0 °F 60.8 °F 78% 30.09 in 10.0 mi SE 9.2 mph - N/A   Overcast
5:35 AM 66.2 °F 62.6 °F 88% 30.08 in 10.0 mi SE 8.1 mph - N/A   Overcast
5:55 AM 68.0 °F 60.8 °F 78% 30.09 in 10.0 mi SE 8.1 mph - N/A   Overcast
6:15 AM 68.0 °F 60.8 °F 78% 30.10 in 10.0 mi SSE 8.1 mph - N/A   Overcast
6:35 AM 68.0 °F 60.8 °F 78% 30.10 in 10.0 mi SE 9.2 mph - N/A   Overcast
6:55 AM 68.0 °F 60.8 °F 78% 30.10 in 10.0 mi SE 9.2 mph - N/A   Overcast
7:15 AM 68.0 °F 60.8 °F 78% 30.10 in 10.0 mi SE 12.7 mph 16.1 mph N/A   Overcast
7:35 AM 68.0 °F 62.6 °F 83% 30.10 in 10.0 mi SE 11.5 mph 16.1 mph N/A   Overcast
7:55 AM 68.0 °F 62.6 °F 83% 30.11 in 10.0 mi SE 10.4 mph 16.1 mph N/A Rain Light Rain
8:15 AM 68.0 °F 62.6 °F 83% 30.10 in 10.0 mi SE 10.4 mph - N/A Rain Light Rain
8:35 AM 68.0 °F 62.6 °F 83% 30.10 in 10.0 mi SE 13.8 mph 18.4 mph N/A Rain Light Rain
8:55 AM 68.0 °F 62.6 °F 83% 30.10 in 10.0 mi SE 10.4 mph 17.3 mph N/A   Scattered Clouds
9:15 AM 68.0 °F 62.6 °F 83% 30.11 in 10.0 mi SSE 9.2 mph - N/A   Clear
9:35 AM 68.0 °F 62.6 °F 83% 30.11 in 10.0 mi SSE 8.1 mph - N/A   Clear
9:55 AM 69.8 °F 62.6 °F 78% 30.12 in 10.0 mi SSE 8.1 mph - N/A   Clear
10:15 AM 69.8 °F 64.4 °F 83% 30.11 in 10.0 mi SSE 8.1 mph - N/A   Clear
10:35 AM 69.8 °F 64.4 °F 83% 30.10 in 10.0 mi SE 11.5 mph - N/A   Clear
10:55 AM 71.6 °F 64.4 °F 78% 30.09 in 10.0 mi SE 9.2 mph - N/A   Clear
11:15 AM 69.8 °F 62.6 °F 78% 30.09 in 10.0 mi SSE 9.2 mph - N/A   Scattered Clouds
11:35 AM 69.8 °F 62.6 °F 78% 30.08 in 10.0 mi SSE 8.1 mph - N/A   Overcast
12:15 PM 69.8 °F 64.4 °F 83% 30.05 in 10.0 mi SSE 9.2 mph - N/A   Mostly Cloudy
12:35 PM 69.8 °F 64.4 °F 83% 30.04 in 10.0 mi SSE 10.4 mph - N/A   Overcast
12:55 PM 69.8 °F 64.4 °F 83% 30.02 in 10.0 mi SSE 10.4 mph - N/A   Overcast
1:15 PM 71.6 °F 64.4 °F 78% 30.01 in 10.0 mi SSE 10.4 mph - N/A   Overcast
1:35 PM 69.8 °F 64.4 °F 83% 30.00 in 10.0 mi South 8.1 mph - N/A   Overcast
1:55 PM 69.8 °F 64.4 °F 83% 29.99 in 10.0 mi South 10.4 mph - N/A   Overcast
2:15 PM 69.8 °F 64.4 °F 83% 29.98 in 10.0 mi SSE 13.8 mph - N/A   Overcast
2:35 PM 71.6 °F 64.4 °F 78% 29.96 in 10.0 mi SSE 12.7 mph 17.3 mph N/A   Overcast
2:55 PM 69.8 °F 64.4 °F 83% 29.96 in 10.0 mi SSE 15.0 mph 18.4 mph N/A   Overcast
3:15 PM 69.8 °F 64.4 °F 83% 29.95 in 10.0 mi SSE 13.8 mph - N/A   Mostly Cloudy
3:35 PM 69.8 °F 64.4 °F 83% 29.94 in 7.0 mi SSE 13.8 mph 19.6 mph N/A   Scattered Clouds
3:55 PM 69.8 °F 64.4 °F 83% 29.94 in 7.0 mi SSE 12.7 mph 17.3 mph N/A   Scattered Clouds
4:15 PM 69.8 °F 64.4 °F 83% 29.92 in 7.0 mi SSE 11.5 mph - N/A   Scattered Clouds
4:35 PM 69.8 °F 64.4 °F 83% 29.92 in 7.0 mi SSE 13.8 mph 19.6 mph N/A   Clear
4:55 PM 69.8 °F 64.4 °F 83% 29.92 in 7.0 mi SSE 11.5 mph - N/A   Clear
5:15 PM 69.8 °F 64.4 °F 83% 29.93 in 7.0 mi SSE 11.5 mph - N/A   Mostly Cloudy
5:35 PM 68.0 °F 64.4 °F 88% 29.93 in 7.0 mi SSE 11.5 mph - N/A   Overcast
5:55 PM 68.0 °F 64.4 °F 88% 29.93 in 7.0 mi SSE 9.2 mph - N/A   Overcast
6:15 PM 68.0 °F 64.4 °F 88% 29.93 in 7.0 mi SSE 8.1 mph - N/A   Overcast
6:35 PM 68.0 °F 64.4 °F 88% 29.95 in 7.0 mi SSE 12.7 mph - N/A   Overcast
6:55 PM 68.0 °F 64.4 °F 88% 29.94 in 7.0 mi SSE 10.4 mph 17.3 mph N/A   Overcast
7:15 PM 68.0 °F 64.4 °F 88% 29.95 in 7.0 mi SSE 11.5 mph - N/A   Overcast
7:55 PM 68.0 °F 64.4 °F 88% 29.94 in 7.0 mi SSE 11.5 mph 17.3 mph N/A   Overcast
8:15 PM 68.0 °F 64.4 °F 88% 29.94 in 7.0 mi SSE 12.7 mph 17.3 mph N/A   Overcast
8:35 PM 68.0 °F 64.4 °F 88% 29.94 in 7.0 mi SSE 12.7 mph 18.4 mph N/A   Overcast
8:55 PM 68.0 °F 64.4 °F 88% 29.94 in 7.0 mi SSE 13.8 mph 18.4 mph N/A   Overcast
9:15 PM 68.0 °F 64.4 °F 88% 29.93 in 7.0 mi SSE 13.8 mph - N/A   Mostly Cloudy
9:35 PM 68.0 °F 64.4 °F 88% 29.93 in 7.0 mi SSE 12.7 mph 18.4 mph N/A   Scattered Clouds
9:55 PM 68.0 °F 64.4 °F 88% 29.93 in 7.0 mi SSE 13.8 mph 18.4 mph N/A   Clear
10:15 PM 68.0 °F 64.4 °F 88% 29.94 in 7.0 mi SSE 15.0 mph - N/A   Mostly Cloudy
10:35 PM 68.0 °F 64.4 °F 88% 29.93 in 7.0 mi SSE 13.8 mph - N/A   Mostly Cloudy
10:55 PM 68.0 °F 64.4 °F 88% 29.91 in 7.0 mi SSE 13.8 mph 19.6 mph N/A   Mostly Cloudy
11:15 PM 68.0 °F 64.4 °F 88% 29.91 in 7.0 mi SSE 12.7 mph 18.4 mph N/A   Overcast
11:35 PM 69.8 °F 64.4 °F 83% 29.91 in 7.0 mi SSE 16.1 mph 20.7 mph N/A   Overcast
11:55 PM 69.8 °F 64.4 °F 83% 29.92 in 7.0 mi SSE 12.7 mph 19.6 mph N/A   Overcast